GLOBALSTAR M086 (38045 NORAD) Tracking and Keplerian Element Data

This shows tracking and keplerian element data for the satellite.

Feedback or suggestion? Click here.




ElementValue
Catalog38045
NameGLOBALSTAR M086
Epoch Orbit64705
Epoch Day354.21563032
Epoch Year2025
RAAN153.3941
Inclination51.9876
Eccentricity0.0001471
Argument of Perigee49.8284
Mean Anonmoly120.5848
Mean Motion12.62281372
Decay Rate-1.07E-06
L11 38045U 11080F 25354.21563032 -.00000107 00000+0 -19802-4 0 9994
L22 38045 51.9876 153.3941 0001471 49.8284 120.5848 12.62281372647056



Live tracking and technical data element details for GLOBALSTAR M086 (NORAD 38045). GLOBALSTAR M086 can be tracked NOW for your location showing map with azimuth and elevation plus other details from your city location.







IsCatalogInMostPopularTable: catalog: 38045, numindb: 411
Update: records affected: 1



GetName: 38045 GLOBALSTAR M086

Hit Count: updated at: Sat, 14 Mar 2026 03:09:16 GMT